HK4D-13 Weather Reports


time (UTC)temp
C
wind
direction
speed
KPH
gust
KPH
rain 1hr
cm
rain 24hr
cm
rain mn
cm
humidity
%
barometer
mb
20260507103608 12 0 3.2 0.0 0.00 0.00 0.00 98 1016.0
20260507102608 12 0 3.2 0.0 0.00 0.00 0.00 98 1016.0
20260507101607 12 0 3.2 0.0 0.00 0.00 0.00 98 1016.0
20260507100606 12 0 3.2 0.0 0.00 0.00 0.00 98 1016.0
20260507095605 12 0 3.2 0.0 0.00 0.00 0.00 98 1016.0
20260507094605 12 0 3.2 0.0 0.00 0.00 0.00 98 1016.0
20260507093605 12 0 3.2 0.0 0.00 0.00 0.00 98 1016.0
20260507092604 12 0 3.2 0.0 0.00 0.00 0.00 98 1016.0
20260507091603 12 0 3.2 0.0 0.00 0.00 0.00 98 1016.0
20260507090603 12 0 3.2 0.0 0.00 0.00 0.00 98 1016.0
20260507085601 12 0 3.2 0.0 0.00 0.00 0.00 98 1016.0
20260507084559 12 0 3.2 0.0 0.00 0.00 0.00 98 1016.0
20260507083558 12 0 3.2 0.0 0.00 0.00 0.00 98 1016.0
20260507082558 13 350 4.8 0.0 0.00 0.00 0.00 98 1016.0
20260507081558 13 350 4.8 0.0 0.00 0.00 0.00 98 1016.0
20260507080557 13 350 4.8 0.0 0.00 0.00 0.00 97 1016.0
20260507075556 13 350 4.8 0.0 0.00 0.00 0.00 97 1016.0
20260507074555 13 350 4.8 0.0 0.00 0.00 0.00 97 1016.0
20260507073554 15 350 4.8 0.0 0.00 0.00 0.00 97 1016.0
20260507072554 15 350 4.8 0.0 0.00 0.00 0.00 96 1016.0
20260507071553 15 350 4.8 0.0 0.00 0.00 0.00 95 1016.0
20260507070553 15 350 4.8 0.0 0.00 0.00 0.00 93 1016.0
20260507065550 15 350 3.2 0.0 0.00 0.00 0.00 91 1016.0
20260507064548 15 350 3.2 0.0 0.00 0.00 0.00 91 1016.0
20260507063548 15 350 3.2 0.0 0.00 0.00 0.00 91 1016.0
20260507062546 15 350 3.2 0.0 0.00 0.00 0.00 91 1017.0
20260507061545 15 350 3.2 0.0 0.00 0.00 0.00 91 1017.0
20260507060544 15 350 3.2 0.0 0.00 0.00 0.00 91 1017.0
20260507055543 15 10 3.2 0.0 0.00 0.00 0.00 91 1017.0
20260507054543 15 10 3.2 0.0 0.00 0.00 0.00 91 1017.0
20260507053541 15 10 3.2 0.0 0.00 0.00 0.00 90 1017.0
20260507052539 15 10 3.2 0.0 0.00 0.00 0.00 90 1018.0
20260507051538 15 10 3.2 0.0 0.00 0.00 0.00 90 1018.0
20260507050537 15 10 3.2 0.0 0.00 0.00 0.00 89 1018.0
20260507045537 15 0 3.2 0.0 0.00 0.00 0.00 89 1018.0
20260507044536 15 0 3.2 0.0 0.00 0.00 0.00 88 1018.0
20260507043535 15 0 3.2 0.0 0.00 0.00 0.00 87 1018.0
20260507042533 15 0 3.2 0.0 0.00 0.00 0.00 86 1018.0
20260507041527 15 0 3.2 0.0 0.00 0.00 0.00 85 1018.0
20260507040527 15 0 3.2 0.0 0.00 0.00 0.00 83 1018.0
20260507035525 15 0 1.6 0.0 0.00 0.00 0.00 81 1018.0
20260507034524 15 0 1.6 0.0 0.00 0.00 0.00 81 1018.0
20260507033517 15 0 1.6 0.0 0.00 0.00 0.00 82 1018.0
20260507032516 15 0 1.6 0.0 0.00 0.00 0.00 82 1017.0
20260507031516 15 0 1.6 0.0 0.00 0.00 0.00 82 1017.0
20260507030515 15 0 1.6 0.0 0.00 0.00 0.00 82 1017.0
20260507025515 15 0 3.2 0.0 0.00 0.00 0.00 83 1017.0
20260507024514 15 0 3.2 0.0 0.00 0.00 0.00 83 1017.0
20260507023513 16 350 4.8 0.0 0.00 0.00 0.00 82 1017.0
20260507022513 16 350 4.8 0.0 0.00 0.00 0.00 81 1017.0
20260507021512 16 350 4.8 0.0 0.00 0.00 0.00 79 1017.0
20260507020512 16 350 4.8 0.0 0.00 0.00 0.00 77 1017.0
20260507015511 16 350 4.8 0.0 0.00 0.00 0.00 75 1017.0
20260507014511 16 350 4.8 0.0 0.00 0.00 0.00 73 1017.0
20260507013506 16 350 4.8 0.0 0.00 0.00 0.00 71 1017.0
20260507012506 16 350 4.8 0.0 0.00 0.00 0.00 67 1016.0
20260507011504 16 350 4.8 0.0 0.00 0.00 0.00 67 1016.0
20260507010504 16 350 4.8 0.0 0.00 0.00 0.00 63 1016.0
20260507005503 16 0 3.2 0.0 0.00 0.00 0.00 60 1016.0
20260507004502 16 0 3.2 0.0 0.00 0.00 0.00 60 1016.0
20260507003500 16 0 3.2 0.0 0.00 0.00 0.00 60 1016.0
20260507002459 16 0 3.2 0.0 0.00 0.00 0.00 60 1015.0
20260507001457 16 0 3.2 0.0 0.00 0.00 0.00 60 1015.0
20260507000456 16 0 3.2 0.0 0.00 0.00 0.00 60 1015.0
20260506235454 18 0 1.6 0.0 0.00 0.00 0.00 51 1015.0
20260506234453 18 0 1.6 0.0 0.00 0.00 0.00 51 1014.0
20260506233451 18 0 1.6 0.0 0.00 0.00 0.00 51 1014.0
20260506232450 18 0 1.6 0.0 0.00 0.00 0.00 51 1013.0
20260506231449 18 0 1.6 0.0 0.00 0.00 0.00 51 1013.0
20260506230448 18 0 4.8 0.0 0.00 0.00 0.00 48 1013.0
20260506225447 19 0 4.8 0.0 0.00 0.00 0.00 48 1013.0
20260506224446 20 0 4.8 0.0 0.00 0.00 0.00 49 1013.0
20260506223446 20 0 4.8 0.0 0.00 0.00 0.00 47 1013.0
20260506222446 20 0 4.8 0.0 0.00 0.00 0.00 47 1011.0
20260506221445 19 76 4.8 9.7 0.00 0.00 0.00 46 1011.0
20260506220444 21 130 8.0 0.0 0.00 0.00 0.00 44 1011.0
20260506215443 21 130 8.0 0.0 0.00 0.00 0.00 44 1011.0
20260506214442 21 130 8.0 0.0 0.00 0.00 0.00 44 1011.0
20260506213442 22 360 17.7 0.0 0.00 0.00 0.00 45 1011.0
20260506212440 22 360 17.7 0.0 0.00 0.00 0.00 45 1010.0
20260506211440 22 360 17.7 0.0 0.00 0.00 0.00 45 1010.0
20260506210439 22 360 17.7 0.0 0.00 0.00 0.00 45 1010.0
20260506205438 22 360 17.7 0.0 0.00 0.00 0.00 45 1010.0
20260506204438 22 360 17.7 0.0 0.00 0.00 0.00 46 1010.0
20260506203437 22 360 17.7 0.0 0.00 0.00 0.00 48 1010.0
20260506202435 22 360 17.7 0.0 0.00 0.00 0.00 49 1010.0
20260506201432 22 360 17.7 0.0 0.00 0.00 0.00 52 1010.0
20260506200432 21 0 9.7 0.0 0.00 0.00 0.00 55 1010.0
20260506195431 21 0 9.7 0.0 0.00 0.00 0.00 55 1010.0
20260506194431 21 0 9.7 0.0 0.00 0.00 0.00 55 1010.0
20260506193428 21 0 9.7 0.0 0.00 0.00 0.00 55 1010.0
20260506192428 21 0 9.7 0.0 0.00 0.00 0.00 55 1011.0
20260506191427 21 0 9.7 0.0 0.00 0.00 0.00 56 1011.0
20260506190426 21 0 8.0 0.0 0.00 0.00 0.00 57 1011.0
20260506185414 21 0 8.0 0.0 0.00 0.00 0.00 57 1011.0
20260506184414 21 0 8.0 0.0 0.00 0.00 0.00 58 1011.0
20260506183413 21 0 8.0 0.0 0.00 0.00 0.00 59 1011.0
20260506182413 21 0 8.0 0.0 0.00 0.00 0.00 60 1012.0
20260506181412 20 0 8.0 0.0 0.00 0.00 0.00 62 1012.0
20260506180411 20 160 8.0 0.0 0.00 0.00 0.00 65 1012.0
20260506175410 20 160 8.0 0.0 0.00 0.00 0.00 65 1012.0
20260506174410 20 160 8.0 0.0 0.00 0.00 0.00 65 1012.0
20260506173409 19 160 8.0 0.0 0.00 0.00 0.00 65 1012.0
20260506172407 19 160 8.0 0.0 0.00 0.00 0.00 66 1013.0
20260506171406 19 160 8.0 0.0 0.00 0.00 0.00 68 1013.0
20260506170405 18 160 9.7 0.0 0.00 0.00 0.00 70 1013.0
20260506165405 18 160 9.7 0.0 0.00 0.00 0.00 70 1013.0
20260506164405 18 160 9.7 0.0 0.00 0.00 0.00 70 1013.0
20260506163403 18 160 9.7 0.0 0.00 0.00 0.00 71 1013.0
20260506162403 18 160 9.7 0.0 0.00 0.00 0.00 71 1014.0
20260506161402 18 0 6.4 0.0 0.00 0.00 0.00 72 1014.0
20260506160359 18 0 6.4 0.0 0.00 0.00 0.00 72 1014.0
20260506155359 18 0 6.4 0.0 0.00 0.00 0.00 72 1014.0
20260506154358 18 0 6.4 0.0 0.00 0.00 0.00 72 1015.0
20260506153354 18 0 6.4 0.0 0.00 0.00 0.00 72 1015.0
20260506152354 18 0 6.4 0.0 0.00 0.00 0.00 72 1016.0
20260506151351 18 0 6.4 0.0 0.00 0.00 0.00 72 1016.0
20260506150350 18 0 6.4 0.0 0.00 0.00 0.00 72 1016.0
20260506145348 18 0 6.4 0.0 0.00 0.00 0.00 72 1016.0
20260506144347 18 0 6.4 0.0 0.00 0.00 0.00 72 1016.0
20260506143346 15 20 6.4 0.0 0.00 0.00 0.00 93 1016.0
20260506142344 15 20 6.4 0.0 0.00 0.00 0.00 93 1016.0
20260506141342 15 20 6.4 0.0 0.00 0.00 0.00 93 1016.0
20260506140342 15 20 6.4 0.0 0.00 0.00 0.00 93 1016.0
20260506135341 15 20 6.4 0.0 0.00 0.00 0.00 94 1016.0
20260506134341 15 20 6.4 0.0 0.00 0.00 0.00 95 1016.0
20260506133340 14 20 6.4 0.0 0.00 0.00 0.00 96 1016.0
20260506132340 14 20 6.4 0.0 0.00 0.00 0.00 96 1017.0
20260506131339 14 20 6.4 0.0 0.00 0.00 0.00 96 1017.0
20260506130339 14 20 6.4 0.0 0.00 0.00 0.00 97 1017.0
20260506125338 14 20 6.4 0.0 0.00 0.00 0.00 97 1017.0
20260506124338 14 20 6.4 0.0 0.00 0.00 0.00 97 1017.0
20260506123337 14 20 6.4 0.0 0.00 0.00 0.00 97 1017.0
20260506122337 14 20 6.4 0.0 0.00 0.00 0.00 97 1017.0
20260506121335 14 20 6.4 0.0 0.00 0.00 0.00 97 1017.0
20260506120334 14 20 6.4 0.0 0.00 0.00 0.00 98 1017.0
20260506115334 14 20 6.4 0.0 0.00 0.00 0.00 98 1017.0
20260506114333 14 20 6.4 0.0 0.00 0.00 0.00 98 1017.0
20260506113330 14 20 6.4 0.0 0.00 0.00 0.00 98 1017.0
20260506112330 14 20 6.4 0.0 0.00 0.00 0.00 97 1017.0
20260506111329 14 20 6.4 0.0 0.00 0.00 0.00 97 1017.0
20260506110329 14 20 6.4 0.0 0.00 0.00 0.00 96 1017.0
20260506105328 14 20 6.4 0.0 0.00 0.00 0.00 96 1017.0
20260506104326 14 20 6.4 0.0 0.00 0.00 0.00 97 1017.0